DELTA 1 DEB, 21293

Orbit data source: Space-Track

DELTA 1 DEB, 21293 is space debris in SSO originally from a launch on Thu, 12 Jun 1975 UTC launched from the Air Force Western Test Range (AFWTR). Debris objects in space refer to the collection of defunct objects orbiting the Earth. Examples of debris include non-operational satellites, rocket bodies, and fragments generated from explosions, collisions, or faulty payload assembly.

Loading next visibility...
Identifier
21293, 1975-052AE
Orbit
SSO
Country
Flag of USUS
Related business
Manufacturer
Unknown
Mission
Spacecraft
Bus & Motor
Unknown
Mass
Unknown
Launch date (UTC)
1975-06-12 (50 years ago)
Launch vehicle
Unknown
Launch site
Air Force Western Test Range (AFWTR)
Object type
Payload
Rocket body
Debris
Shape & HBR
Unknown
Radar Cross Section
Small (<0.1 m²)

Expand to show TLE details & history
Last TLE update: 9 hours ago

TLE from 9 hours ago
0 DELTA 1 DEB
1 21293U 75052AE  25259.21134729  .00000017  00000-0  17996-3 0  9991
2 21293  99.8746  57.6349 0272084 234.3944 301.3655 12.91657209617805
Epoch: 2025-09-16T05:04Z
TLE epoch observation values (Epoch: 2025-09-16T05:04:20.405Z)
Latitude
6.77616°
Longitude
167.3241°
Altitude
1,192.581 km
Speed
7.307 km/s
True Right ascension
15h 55m 15s
True Declination
6° 44' 18"
Sunlit
Object was in daylight at epoch
Visualization orbit readout
Latitude
Unknown
Longitude
Unknown
Altitude
Unknown
Speed
Unknown
Apparent Right ascension
Unknown
Apparent Declination
Unknown
Sunlit
N/A
Visualization observer readout
Local Sidereal Time
06:35:37
Azimuth
Unknown
Elevation
Unknown
Doppler factor
Unknown
Orbital elements
Apogee altitude
1,501.041 km
Perigee altitude
1,083.638 km
Semi-major axis
7,670.476 km
Eccentricity
0.02721
Inclination
99.8746°
RAAN
57.6349°
Arg. of periapsis
234.3944°
True anomaly
298.65635°
Mean anomaly
301.3655°
Eccentric anomaly
300.01564°
Mean motion
3.2308 °/min
Orbital period
111.43 mins
BSTAR
0.00017996
Loading maneuver chart data...
Computing Atmospheric mass density...
Loading historical data...
Loading historical data...
Loading historical data...
Loading historical data...
Loading historical data...
Loading historical data...
Loading historical data...

Documentation

Showing up to 5 results
|